Time,TemperatureF,DewpointF,PressureIn,WindDirection,WindDirectionDegrees,WindSpeedMPH,WindSpeedGustMPH,Humidity,HourlyPrecipIn,Conditions,Clouds,dailyrainin,SoftwareType,DateUTC
2013-01-03 00:02:00,11.0,8.0,27.88,SSE,161,6.0,9.0,86,0.00,,,0.00,,2013-01-03 07:02:00,
2013-01-03 00:12:00,11.0,8.0,27.88,SSE,161,6.0,9.0,86,0.00,,,0.00,,2013-01-03 07:12:00,
2013-01-03 00:22:00,11.0,8.0,27.87,South,171,5.0,9.0,86,0.00,,,0.00,,2013-01-03 07:22:00,
2013-01-03 00:33:00,10.0,7.0,27.88,South,183,3.0,6.0,87,0.00,,,0.00,,2013-01-03 07:33:00,
2013-01-03 00:42:00,10.0,7.0,27.88,South,183,3.0,6.0,87,0.00,,,0.00,,2013-01-03 07:42:00,
2013-01-03 00:52:00,10.0,7.0,27.88,SSW,202,2.0,5.0,87,0.00,,,0.00,,2013-01-03 07:52:00,
2013-01-03 01:02:00,9.0,6.0,27.87,South,177,5.0,7.0,87,0.00,,,0.00,,2013-01-03 08:02:00,
2013-01-03 01:12:00,9.0,6.0,27.87,South,177,5.0,7.0,87,0.00,,,0.00,,2013-01-03 08:12:00,
2013-01-03 01:22:00,8.0,5.0,27.87,South,175,5.0,8.0,87,0.00,,,0.00,,2013-01-03 08:22:00,
2013-01-03 01:32:00,8.0,5.0,27.87,South,173,5.0,8.0,87,0.00,,,0.00,,2013-01-03 08:32:00,
2013-01-03 01:42:00,8.0,5.0,27.87,South,173,5.0,8.0,87,0.00,,,0.00,,2013-01-03 08:42:00,
2013-01-03 01:53:00,8.0,5.0,27.87,South,184,6.0,10.0,88,0.00,,,0.00,,2013-01-03 08:53:00,
2013-01-03 02:02:00,7.0,4.0,27.87,South,173,2.0,6.0,87,0.00,,,0.00,,2013-01-03 09:02:00,
2013-01-03 02:12:00,7.0,4.0,27.87,South,173,2.0,6.0,87,0.00,,,0.00,,2013-01-03 09:12:00,
2013-01-03 02:22:00,7.0,4.0,27.87,South,171,5.0,8.0,88,0.00,,,0.00,,2013-01-03 09:22:00,
2013-01-03 02:33:00,7.0,4.0,27.87,South,178,5.0,8.0,88,0.00,,,0.00,,2013-01-03 09:33:00,
2013-01-03 02:43:00,7.0,4.0,27.87,South,178,5.0,8.0,88,0.00,,,0.00,,2013-01-03 09:43:00,
2013-01-03 02:52:00,7.0,4.0,27.87,South,181,5.0,8.0,88,0.00,,,0.00,,2013-01-03 09:52:00,
2013-01-03 03:02:00,7.0,4.0,27.87,South,190,4.0,7.0,88,0.00,,,0.00,,2013-01-03 10:02:00,
2013-01-03 03:12:00,7.0,4.0,27.87,South,190,4.0,7.0,88,0.00,,,0.00,,2013-01-03 10:12:00,
2013-01-03 03:22:00,7.0,4.0,27.86,South,177,5.0,8.0,88,0.00,,,0.00,,2013-01-03 10:22:00,
2013-01-03 03:33:00,7.0,4.0,27.86,SSW,192,6.0,11.0,88,0.00,,,0.00,,2013-01-03 10:33:00,
2013-01-03 03:42:00,7.0,4.0,27.86,SSW,192,6.0,11.0,88,0.00,,,0.00,,2013-01-03 10:42:00,
2013-01-03 03:52:00,7.0,4.0,27.86,South,182,5.0,9.0,87,0.00,,,0.00,,2013-01-03 10:52:00,
2013-01-03 04:02:00,7.0,4.0,27.85,South,182,5.0,8.0,88,0.00,,,0.00,,2013-01-03 11:02:00,
2013-01-03 04:12:00,7.0,4.0,27.85,South,182,5.0,8.0,88,0.00,,,0.00,,2013-01-03 11:12:00,
2013-01-03 04:22:00,7.0,4.0,27.85,South,179,6.0,9.0,88,0.00,,,0.00,,2013-01-03 11:22:00,
2013-01-03 04:33:00,7.0,4.0,27.85,South,175,6.0,9.0,87,0.00,,,0.00,,2013-01-03 11:33:00,
2013-01-03 04:43:00,7.0,4.0,27.85,South,175,6.0,9.0,87,0.00,,,0.00,,2013-01-03 11:43:00,
2013-01-03 04:53:00,6.0,3.0,27.84,South,176,5.0,7.0,87,0.00,,,0.00,,2013-01-03 11:53:00,
2013-01-03 05:03:00,6.0,3.0,27.84,South,188,4.0,7.0,87,0.00,,,0.00,,2013-01-03 12:03:00,
2013-01-03 05:12:00,6.0,3.0,27.84,South,188,4.0,7.0,87,0.00,,,0.00,,2013-01-03 12:12:00,
2013-01-03 05:22:00,5.0,2.0,27.84,South,177,5.0,7.0,86,0.00,,,0.00,,2013-01-03 12:22:00,
2013-01-03 05:32:00,5.0,2.0,27.83,South,175,6.0,8.0,87,0.00,,,0.00,,2013-01-03 12:32:00,
2013-01-03 05:42:00,5.0,2.0,27.83,South,175,6.0,8.0,87,0.00,,,0.00,,2013-01-03 12:42:00,
2013-01-03 05:52:00,5.0,2.0,27.82,South,184,5.0,8.0,87,0.00,,,0.00,,2013-01-03 12:52:00,
2013-01-03 06:02:00,5.0,2.0,27.82,South,171,6.0,8.0,87,0.00,,,0.00,,2013-01-03 13:02:00,
2013-01-03 06:12:00,5.0,2.0,27.82,South,171,6.0,8.0,87,0.00,,,0.00,,2013-01-03 13:12:00,
2013-01-03 06:22:00,6.0,3.0,27.82,SSE,159,4.0,8.0,87,0.00,,,0.00,,2013-01-03 13:22:00,
2013-01-03 06:33:00,6.0,3.0,27.81,SSE,153,5.0,7.0,87,0.00,,,0.00,,2013-01-03 13:33:00,
2013-01-03 06:42:00,6.0,3.0,27.81,SSE,153,5.0,7.0,87,0.00,,,0.00,,2013-01-03 13:42:00,
2013-01-03 06:52:00,6.0,3.0,27.81,SSE,153,5.0,7.0,87,0.00,,,0.00,,2013-01-03 13:52:00,
2013-01-03 07:03:00,7.0,4.0,27.80,SSE,166,6.0,10.0,87,0.00,,,0.00,,2013-01-03 14:03:00,
2013-01-03 07:12:00,7.0,4.0,27.80,SSE,166,6.0,10.0,87,0.00,,,0.00,,2013-01-03 14:12:00,
2013-01-03 07:23:00,7.0,4.0,27.80,South,176,4.0,8.0,87,0.00,,,0.00,,2013-01-03 14:23:00,
2013-01-03 07:33:00,7.0,4.0,27.79,SSE,164,4.0,7.0,87,0.00,,,0.00,,2013-01-03 14:33:00,
2013-01-03 07:42:00,7.0,4.0,27.79,SSE,164,4.0,7.0,87,0.00,,,0.00,,2013-01-03 14:42:00,
2013-01-03 07:53:00,7.0,4.0,27.79,South,180,4.0,7.0,86,0.00,,,0.00,,2013-01-03 14:53:00,
2013-01-03 08:03:00,6.0,2.0,27.79,South,188,1.0,4.0,85,0.00,,,0.00,,2013-01-03 15:03:00,
2013-01-03 08:12:00,6.0,2.0,27.79,South,188,1.0,4.0,85,0.00,,,0.00,,2013-01-03 15:12:00,
2013-01-03 08:22:00,6.0,3.0,27.79,South,186,2.0,4.0,86,0.00,,,0.00,,2013-01-03 15:22:00,
2013-01-03 08:33:00,6.0,3.0,27.79,South,180,0.0,1.0,86,0.00,,,0.00,,2013-01-03 15:33:00,
2013-01-03 08:43:00,6.0,3.0,27.79,South,180,0.0,1.0,86,0.00,,,0.00,,2013-01-03 15:43:00,
2013-01-03 08:53:00,5.0,2.0,27.79,South,180,0.0,0.0,85,0.00,,,0.00,,2013-01-03 15:53:00,
2013-01-03 09:03:00,6.0,3.0,27.79,South,180,0.0,0.0,86,0.00,,,0.00,,2013-01-03 16:03:00,
2013-01-03 09:12:00,6.0,3.0,27.79,South,180,0.0,0.0,86,0.00,,,0.00,,2013-01-03 16:12:00,
2013-01-03 09:22:00,6.0,3.0,27.79,South,180,0.0,1.0,86,0.00,,,0.00,,2013-01-03 16:22:00,
2013-01-03 09:33:00,7.0,4.0,27.79,South,180,0.0,4.0,86,0.00,,,0.00,,2013-01-03 16:33:00,
2013-01-03 09:43:00,7.0,4.0,27.79,South,180,0.0,4.0,86,0.00,,,0.00,,2013-01-03 16:43:00,
2013-01-03 09:53:00,9.0,6.0,27.78,SSE,163,5.0,8.0,87,0.00,,,0.00,,2013-01-03 16:53:00,
2013-01-03 10:03:00,10.0,6.0,27.78,South,182,5.0,7.0,85,0.00,,,0.00,,2013-01-03 17:03:00,
2013-01-03 10:12:00,10.0,6.0,27.78,South,182,5.0,7.0,85,0.00,,,0.00,,2013-01-03 17:12:00,
2013-01-03 10:23:00,10.0,6.0,27.77,SSE,168,8.0,11.0,84,0.00,,,0.00,,2013-01-03 17:23:00,
2013-01-03 10:33:00,11.0,7.0,27.78,South,173,7.0,12.0,83,0.00,,,0.00,,2013-01-03 17:33:00,
2013-01-03 10:43:00,11.0,7.0,27.78,South,173,7.0,12.0,83,0.00,,,0.00,,2013-01-03 17:43:00,
2013-01-03 10:53:00,12.0,7.0,27.77,South,171,9.0,12.0,81,0.00,,,0.00,,2013-01-03 17:53:00,
2013-01-03 11:03:00,12.0,7.0,27.76,South,169,8.0,12.0,79,0.00,,,0.00,,2013-01-03 18:03:00,
2013-01-03 11:13:00,12.0,7.0,27.76,South,169,8.0,12.0,79,0.00,,,0.00,,2013-01-03 18:13:00,
2013-01-03 11:22:00,13.0,7.0,27.76,SSE,163,8.0,10.0,78,0.00,,,0.00,,2013-01-03 18:22:00,
2013-01-03 11:33:00,14.0,8.0,27.75,South,169,8.0,12.0,78,0.00,,,0.00,,2013-01-03 18:33:00,
2013-01-03 11:42:00,14.0,8.0,27.75,South,169,8.0,12.0,78,0.00,,,0.00,,2013-01-03 18:42:00,
2013-01-03 11:53:00,15.0,9.0,27.75,South,169,8.0,10.0,77,0.00,,,0.00,,2013-01-03 18:53:00,
2013-01-03 12:03:00,16.0,9.0,27.74,SSE,167,9.0,12.0,75,0.00,,,0.00,,2013-01-03 19:03:00,
2013-01-03 12:12:00,16.0,9.0,27.74,SSE,167,9.0,12.0,75,0.00,,,0.00,,2013-01-03 19:12:00,
2013-01-03 12:55:00,19.0,12.0,27.72,SSE,160,8.0,11.0,73,0.00,,,0.00,,2013-01-03 19:55:00,
2013-01-03 13:03:00,21.0,12.0,27.70,South,169,10.0,13.0,69,0.00,,,0.00,,2013-01-03 20:03:00,
2013-01-03 13:12:00,21.0,12.0,27.70,South,169,10.0,13.0,69,0.00,,,0.00,,2013-01-03 20:12:00,
2013-01-03 13:22:00,22.0,13.0,27.69,SSE,165,11.0,15.0,69,0.00,,,0.00,,2013-01-03 20:22:00,
2013-01-03 13:33:00,23.0,14.0,27.69,SSE,165,12.0,15.0,67,0.00,,,0.00,,2013-01-03 20:33:00,
2013-01-03 13:42:00,23.0,14.0,27.69,SSE,165,12.0,15.0,67,0.00,,,0.00,,2013-01-03 20:42:00,
2013-01-03 13:53:00,23.0,13.0,27.68,SSE,160,9.0,13.0,66,0.00,,,0.00,,2013-01-03 20:53:00,
2013-01-03 14:02:00,24.0,15.0,27.68,South,173,9.0,13.0,67,0.00,,,0.00,,2013-01-03 21:02:00,
2013-01-03 14:12:00,24.0,15.0,27.68,South,173,9.0,13.0,67,0.00,,,0.00,,2013-01-03 21:12:00,
2013-01-03 14:22:00,24.0,15.0,27.68,South,173,9.0,13.0,67,0.00,,,0.00,,2013-01-03 21:22:00,
2013-01-03 14:36:00,25.0,14.0,27.68,SSE,163,8.0,12.0,63,0.00,,,0.00,,2013-01-03 21:36:00,
2013-01-03 14:48:00,25.0,14.0,27.68,SSE,163,8.0,12.0,63,0.00,,,0.00,,2013-01-03 21:48:00,
2013-01-03 14:53:00,26.0,14.0,27.67,South,169,12.0,18.0,61,0.00,,,0.00,,2013-01-03 21:53:00,
2013-01-03 15:03:00,26.0,14.0,27.68,SSE,165,11.0,16.0,60,0.00,,,0.00,,2013-01-03 22:03:00,
2013-01-03 15:12:00,26.0,14.0,27.68,SSE,165,11.0,16.0,60,0.00,,,0.00,,2013-01-03 22:12:00,
2013-01-03 15:22:00,26.0,14.0,27.68,South,169,9.0,12.0,61,0.00,,,0.00,,2013-01-03 22:22:00,
2013-01-03 15:32:00,26.0,15.0,27.68,SSE,167,9.0,15.0,63,0.00,,,0.00,,2013-01-03 22:32:00,
2013-01-03 15:42:00,26.0,15.0,27.68,SSE,167,9.0,15.0,63,0.00,,,0.00,,2013-01-03 22:42:00,
2013-01-03 15:52:00,25.0,15.0,27.68,SSE,164,9.0,13.0,65,0.00,,,0.00,,2013-01-03 22:52:00,
2013-01-03 16:02:00,25.0,15.0,27.68,South,171,8.0,11.0,65,0.00,,,0.00,,2013-01-03 23:02:00,
2013-01-03 16:12:00,25.0,15.0,27.68,South,171,8.0,11.0,65,0.00,,,0.00,,2013-01-03 23:12:00,
2013-01-03 16:22:00,24.0,15.0,27.68,South,178,10.0,13.0,67,0.00,,,0.00,,2013-01-03 23:22:00,
2013-01-03 16:32:00,24.0,15.0,27.68,South,171,9.0,12.0,67,0.00,,,0.00,,2013-01-03 23:32:00,
2013-01-03 16:42:00,24.0,15.0,27.68,South,171,9.0,12.0,67,0.00,,,0.00,,2013-01-03 23:42:00,
2013-01-03 16:53:00,23.0,14.0,27.68,South,173,9.0,13.0,69,0.00,,,0.00,,2013-01-03 23:53:00,
2013-01-03 17:03:00,22.0,14.0,27.68,South,175,7.0,12.0,71,0.00,,,0.00,,2013-01-04 00:03:00,
2013-01-03 17:12:00,22.0,14.0,27.68,South,175,7.0,12.0,71,0.00,,,0.00,,2013-01-04 00:12:00,
2013-01-03 17:22:00,21.0,13.0,27.68,South,173,8.0,11.0,72,0.00,,,0.00,,2013-01-04 00:22:00,
2013-01-03 17:32:00,21.0,13.0,27.68,South,173,8.0,11.0,72,0.00,,,0.00,,2013-01-04 00:32:00,
2013-01-03 17:42:00,21.0,13.0,27.68,South,173,8.0,11.0,72,0.00,,,0.00,,2013-01-04 00:42:00,
2013-01-03 17:53:00,21.0,13.0,27.69,South,175,3.0,10.0,72,0.00,,,0.00,,2013-01-04 00:53:00,
2013-01-03 18:02:00,20.0,13.0,27.69,SSW,194,6.0,9.0,73,0.00,,,0.00,,2013-01-04 01:02:00,
2013-01-03 18:12:00,20.0,13.0,27.69,SSW,194,6.0,9.0,73,0.00,,,0.00,,2013-01-04 01:12:00,
2013-01-03 18:22:00,20.0,13.0,27.70,South,186,2.0,8.0,74,0.00,,,0.00,,2013-01-04 01:22:00,
2013-01-03 18:32:00,19.0,12.0,27.70,South,186,0.0,6.0,74,0.00,,,0.00,,2013-01-04 01:32:00,
2013-01-03 18:42:00,19.0,12.0,27.70,South,186,0.0,6.0,74,0.00,,,0.00,,2013-01-04 01:42:00,
2013-01-03 18:52:00,19.0,12.0,27.70,South,188,4.0,8.0,75,0.00,,,0.00,,2013-01-04 01:52:00,
2013-01-03 19:02:00,18.0,11.0,27.70,South,187,1.0,4.0,75,0.00,,,0.00,,2013-01-04 02:02:00,
2013-01-03 19:12:00,18.0,11.0,27.70,South,187,1.0,4.0,75,0.00,,,0.00,,2013-01-04 02:12:00,
2013-01-03 19:22:00,17.0,11.0,27.70,South,175,5.0,6.0,76,0.00,,,0.00,,2013-01-04 02:22:00,
2013-01-03 19:32:00,17.0,11.0,27.70,South,175,4.0,6.0,77,0.00,,,0.00,,2013-01-04 02:32:00,
2013-01-03 19:42:00,17.0,11.0,27.70,South,175,4.0,6.0,77,0.00,,,0.00,,2013-01-04 02:42:00,
2013-01-03 19:53:00,17.0,11.0,27.68,South,178,4.0,7.0,78,0.00,,,0.00,,2013-01-04 02:53:00,
2013-01-03 20:02:00,17.0,11.0,27.70,South,177,0.0,5.0,77,0.00,,,0.00,,2013-01-04 03:02:00,
2013-01-03 20:12:00,17.0,11.0,27.70,South,177,0.0,5.0,77,0.00,,,0.00,,2013-01-04 03:12:00,
2013-01-03 20:22:00,15.0,9.0,27.70,SSE,153,3.0,5.0,76,0.00,,,0.00,,2013-01-04 03:22:00,
2013-01-03 20:32:00,14.0,8.0,27.69,SSE,150,2.0,5.0,77,0.00,,,0.00,,2013-01-04 03:32:00,
2013-01-03 20:42:00,14.0,8.0,27.69,SSE,150,2.0,5.0,77,0.00,,,0.00,,2013-01-04 03:42:00,
2013-01-03 20:53:00,14.0,8.0,27.69,SSE,159,0.0,1.0,77,0.00,,,0.00,,2013-01-04 03:53:00,
2013-01-03 21:02:00,13.0,8.0,27.69,South,170,3.0,7.0,81,0.00,,,0.00,,2013-01-04 04:02:00,
2013-01-03 21:12:00,13.0,8.0,27.69,South,170,3.0,7.0,81,0.00,,,0.00,,2013-01-04 04:12:00,
2013-01-03 21:22:00,14.0,9.0,27.69,South,191,6.0,7.0,81,0.00,,,0.00,,2013-01-04 04:22:00,
2013-01-03 21:32:00,14.0,9.0,27.69,ESE,117,2.0,6.0,80,0.00,,,0.00,,2013-01-04 04:32:00,
2013-01-03 21:42:00,14.0,9.0,27.69,ESE,117,2.0,6.0,80,0.00,,,0.00,,2013-01-04 04:42:00,
2013-01-03 21:52:00,14.0,9.0,27.69,ESE,117,2.0,6.0,80,0.00,,,0.00,,2013-01-04 04:52:00,
2013-01-03 22:03:00,12.0,8.0,27.69,SSE,158,1.0,4.0,82,0.00,,,0.00,,2013-01-04 05:03:00,
2013-01-03 22:12:00,12.0,8.0,27.69,SSE,158,1.0,4.0,82,0.00,,,0.00,,2013-01-04 05:12:00,
2013-01-03 22:22:00,12.0,8.0,27.69,SSE,158,3.0,5.0,83,0.00,,,0.00,,2013-01-04 05:22:00,
2013-01-03 22:33:00,12.0,8.0,27.69,SSE,165,5.0,6.0,82,0.00,,,0.00,,2013-01-04 05:33:00,
2013-01-03 22:42:00,12.0,8.0,27.69,SSE,165,5.0,6.0,82,0.00,,,0.00,,2013-01-04 05:42:00,
2013-01-03 22:53:00,11.0,6.0,27.69,SSE,165,4.0,6.0,81,0.00,,,0.00,,2013-01-04 05:53:00,
2013-01-03 23:02:00,12.0,8.0,27.69,South,173,6.0,7.0,84,0.00,,,0.00,,2013-01-04 06:02:00,
2013-01-03 23:12:00,12.0,8.0,27.69,South,173,6.0,7.0,84,0.00,,,0.00,,2013-01-04 06:12:00,
2013-01-03 23:22:00,12.0,8.0,27.68,South,190,5.0,7.0,83,0.00,,,0.00,,2013-01-04 06:22:00,
2013-01-03 23:32:00,12.0,8.0,27.69,South,171,2.0,7.0,82,0.00,,,0.00,,2013-01-04 06:32:00,
2013-01-03 23:42:00,12.0,8.0,27.69,South,171,2.0,7.0,82,0.00,,,0.00,,2013-01-04 06:42:00,
2013-01-03 23:52:00,11.0,7.0,27.68,South,180,5.0,7.0,83,0.00,,,0.00,,2013-01-04 06:52:00,